Theta_e
291 291 290 290 288 289 288 288 289 289 290 291 291 291 291 291 291 292 293 299 302 306 309 311 314 316 317 318 319 321 322 323 325 329 330 331 332 337 341 342 344 344 344
290 290 289 289 288 288 287 288 288 288 288 289 289 290 290 290 291 291 292 292 300 303 306 309 311 313 314 315 316 318 319 320 321 322 323 325 328 331 333 337 340 341 342
289 288 288 287 287 287 287 287 287 287 287 288 287 289 289 290 290 290 290 291 293 299 303 307 309 310 312 314 315 315 317 318 319 320 320 321 322 323 325 327 329 338 339
289 287 287 286 287 286 286 286 286 285 285 286 285 286 287 289 289 289 290 290 291 293 298 304 307 308 309 311 312 314 316 319 320 321 320 319 319 320 326 326 327 329 337
288 287 286 286 286 286 285 286 285 284 284 285 286 286 287 287 287 290 289 290 291 293 293 300 304 305 308 309 310 310 312 313 313 315 316 321 322 322 324 323 324 330 329
287 286 285 286 286 285 285 284 284 284 284 284 286 286 285 286 286 286 287 289 289 290 292 294 295 296 302 305 307 308 309 311 314 312 312 314 317 320 321 319 321 323 329
286 285 285 285 285 284 284 284 284 283 283 283 283 283 284 285 285 286 285 286 288 289 289 290 291 292 294 299 301 305 308 309 309 307 311 309 311 315 316 316 319 320 322
285 285 284 284 284 283 283 283 283 282 283 283 281 281 279 282 285 285 285 285 285 286 288 289 290 290 289 291 295 301 303 304 305 308 307 306 307 310 311 312 314 316 321
285 285 284 283 283 283 282 282 282 282 281 281 282 281 278 277 280 284 284 285 284 285 286 286 287 287 290 290 292 293 298 300 303 304 304 305 308 309 309 308 310 313 316
284 284 284 283 282 282 282 282 283 282 281 280 281 284 282 281 278 277 281 282 284 284 284 284 285 287 287 288 290 293 295 297 298 299 302 304 305 305 306 307 309 311 312
284 283 283 282 282 282 282 282 281 281 281 280 280 280 280 280 279 278 277 279 282 282 283 283 284 285 286 287 288 290 294 296 297 297 298 299 302 304 306 307 308 309 310
283 282 282 281 281 281 281 281 281 281 281 280 280 280 280 278 278 277 277 277 277 280 282 283 283 284 285 285 289 291 292 293 294 294 295 296 298 300 302 304 306 307 309
282 282 281 280 280 280 281 281 280 279 279 279 279 279 280 280 280 279 278 277 276 278 279 282 283 283 285 285 286 288 288 289 290 291 292 293 295 296 298 301 302 304 305
283 282 281 280 280 280 280 279 279 278 278 279 278 278 279 279 280 280 279 277 274 276 278 277 281 282 282 282 283 284 282 284 286 288 289 290 292 294 295 297 298 299 301
281 280 280 280 279 279 279 278 278 278 278 278 278 278 278 278 279 279 279 278 276 272 274 276 277 280 279 279 280 279 278 280 284 285 286 287 288 290 292 294 295 297 299
281 279 279 279 278 278 278 277 277 277 277 277 278 277 277 277 277 277 277 277 276 272 270 275 275 276 277 277 277 277 277 279 280 281 283 284 286 287 289 291 293 294 296
280 280 279 278 277 277 277 276 276 276 275 275 275 275 275 275 274 274 274 274 273 273 269 273 275 275 274 274 275 275 275 275 275 279 281 283 284 285 287 288 289 291 292
279 279 278 277 277 276 276 275 274 275 273 273 274 273 273 274 273 273 272 271 272 272 270 268 271 272 272 273 273 273 274 276 275 278 281 282 284 285 286 287 289 290 290
278 278 277 277 276 275 275 275 274 273 273 273 273 273 272 272 271 271 271 270 271 271 271 269 269 271 272 273 272 273 274 275 276 279 281 281 282 284 285 286 287 288 288
277 277 277 276 275 274 273 273 273 272 271 272 272 272 272 271 272 271 270 270 270 269 269 269 269 269 271 273 274 273 273 275 276 278 279 280 281 282 284 285 286 287 289
277 276 275 274 273 273 273 272 272 271 271 271 271 272 272 273 274 273 271 270 270 268 269 269 269 271 272 273 273 274 273 273 274 276 276 277 278 279 280 283 283 285 286
275 275 274 273 271 272 277 278 274 272 271 271 271 272 273 272 274 276 277 277 276 272 271 271 272 272 272 273 274 274 273 272 270 276 274 274 277 276 278 280 283 284 285
274 273 273 272 271 272 279 279 277 273 272 272 272 272 272 273 273 273 275 276 277 278 278 275 273 273 273 274 274 273 273 272 271 274 275 272 275 274 277 279 283 284 285
274 273 272 272 272 271 280 281 279 274 273 273 272 272 272 272 273 273 273 273 273 274 275 276 275 275 276 276 276 276 275 275 276 276 276 271 275 274 276 278 282 283 285
273 273 272 271 271 271 280 281 279 273 273 272 273 273 273 273 274 276 274 272 273 274 278 279 279 279 279 279 278 273 270 269 268 270 274 273 274 275 276 277 279 283 285
273 273 271 271 271 270 280 280 279 273 271 271 272 273 275 274 276 277 274 273 272 273 272 271 274 271 273 271 274 272 270 267 267 267 274 273 274 274 272 276 278 280 281
Wind_Speed
5 4 4 4 3 3 2 3 3 3 4 5 5 5 6 6 6 3 3 12 14 14 13 12 12 12 13 15 16 17 17 17 16 14 15 16 15 15 14 14 14 16 20
5 5 5 4 3 3 2 3 3 4 4 4 5 5 6 5 5 5 4 5 12 11 11 12 12 13 13 13 13 14 15 16 17 17 17 17 18 17 16 16 15 16 18
6 6 5 4 4 4 4 2 3 3 4 4 5 5 4 5 5 6 5 5 6 12 12 12 13 13 13 13 14 14 15 16 15 15 15 16 18 19 18 17 17 15 16
7 6 5 4 4 3 3 3 3 3 4 4 4 4 5 4 5 5 4 4 4 4 8 13 13 14 15 15 14 15 18 16 14 13 14 15 18 20 17 15 16 16 15
7 6 5 5 5 4 3 2 3 2 3 4 4 5 5 4 5 4 5 6 6 5 4 9 11 12 13 15 16 19 18 20 19 18 17 17 16 14 15 19 20 18 16
7 6 5 5 4 4 3 2 2 3 2 2 4 5 5 4 4 3 4 5 5 4 5 6 5 5 14 17 19 17 23 18 16 20 20 20 19 18 16 20 19 20 22
7 7 5 5 5 5 4 3 3 3 3 4 3 4 4 4 2 2 2 3 4 5 6 5 4 4 6 21 21 19 16 20 23 25 18 20 23 21 18 20 19 20 21
7 7 7 6 6 4 4 3 3 3 2 4 3 1 5 6 4 5 2 3 4 4 6 8 9 7 6 5 8 20 23 24 25 21 22 25 24 22 21 21 23 23 21
8 7 7 6 6 5 5 4 4 6 4 1 3 3 2 2 4 4 5 4 7 5 4 7 6 5 5 5 9 13 20 22 22 25 26 26 22 21 23 25 25 24 23
9 8 8 7 6 4 6 5 4 4 5 4 2 3 2 2 3 6 3 4 4 7 8 4 6 5 8 4 9 14 20 21 23 24 23 23 25 27 28 27 25 25 25
7 7 7 7 7 5 5 6 5 6 4 5 4 2 2 0 2 3 7 8 8 3 7 3 4 8 7 5 5 10 22 22 22 23 25 26 26 26 26 26 26 27 28
7 8 7 6 6 5 6 5 5 6 5 5 4 4 4 2 2 1 3 4 10 10 7 7 6 4 4 4 9 15 19 23 25 27 28 28 28 28 28 28 27 28 29
8 11 9 9 6 5 5 5 5 5 6 5 5 4 3 3 2 2 3 6 4 4 5 4 3 2 3 4 6 16 19 23 27 28 28 30 31 32 30 30 29 29 31
10 10 9 8 8 8 7 6 4 3 5 5 6 4 2 2 1 1 2 4 7 4 6 5 2 2 4 5 11 21 12 24 26 30 32 33 33 34 32 32 33 34 34
7 10 11 10 9 9 9 8 5 6 5 4 4 4 3 1 1 1 0 0 2 6 5 1 2 1 6 6 10 12 12 22 29 29 31 32 34 35 34 35 35 34 33
11 13 13 11 10 9 8 8 5 6 7 5 4 4 3 2 1 1 1 1 2 3 8 1 3 6 6 8 12 13 13 25 26 30 31 32 33 34 34 34 34 35 35
14 15 15 14 12 11 9 8 7 7 7 7 5 5 4 4 3 2 3 3 4 4 9 8 2 8 12 13 12 12 13 14 13 27 31 32 32 32 33 33 35 36 36
14 15 15 15 13 12 10 10 9 8 9 8 7 6 5 4 5 4 4 5 6 6 5 18 11 10 13 14 15 16 13 13 14 23 32 32 32 32 33 33 33 34 34
14 14 16 16 14 13 12 9 9 8 8 7 8 8 7 7 6 5 5 5 5 6 6 9 17 10 12 13 16 15 15 16 13 25 28 30 31 31 32 33 34 34 34
17 16 15 14 14 13 12 11 10 9 8 7 7 7 7 7 8 6 6 6 6 5 7 10 14 15 13 13 13 15 16 13 13 13 21 25 29 31 33 33 32 32 28
15 16 15 13 13 12 10 12 11 10 10 9 7 8 7 9 12 10 6 7 7 7 7 10 13 15 15 13 14 14 18 17 15 13 14 12 12 12 13 22 26 30 32
14 14 14 15 14 10 21 23 15 11 10 10 8 8 8 8 11 13 14 15 12 8 10 10 11 15 21 17 14 15 17 18 24 9 14 16 11 15 13 13 28 34 36
15 14 14 14 14 12 24 24 22 11 10 8 8 7 7 6 7 7 12 14 16 20 22 16 18 17 23 18 20 22 20 20 22 16 17 20 13 17 13 17 34 36 36
18 16 15 15 14 12 27 27 25 11 9 10 8 8 7 6 7 8 9 9 12 13 14 13 15 17 19 17 19 20 22 21 20 16 14 20 14 16 15 15 32 35 35
14 15 14 14 13 11 25 25 21 10 10 9 9 8 7 7 11 13 9 9 11 13 14 22 28 32 32 33 32 19 17 17 21 22 12 17 19 17 16 15 14 31 34
12 10 12 11 12 12 26 25 18 8 9 8 7 8 10 12 15 14 8 9 10 10 10 14 11 14 20 19 29 16 13 16 16 22 10 16 16 14 19 13 14 14 14
Wind_Direction
152 142 131 124 121 120 118 88 75 54 39 15 13 9 349 339 327 318 316 324 335 337 338 341 339 343 341 341 335 329 323 320 319 323 322 319 327 324 304 284 272 252 239
153 146 138 136 131 140 136 99 77 54 34 15 3 357 334 321 315 314 312 315 322 332 339 345 347 350 347 347 342 336 330 325 325 322 320 324 332 332 338 325 289 283 255
167 147 145 149 161 164 126 117 78 67 46 13 352 335 318 309 308 314 319 308 316 323 336 347 346 347 351 351 346 341 338 332 324 322 321 323 323 319 318 315 331 299 282
156 152 145 157 155 134 135 105 66 56 36 9 336 315 304 307 304 316 313 313 313 315 333 335 334 338 351 348 341 352 343 335 338 336 334 338 329 320 315 308 307 315 302
162 143 151 158 157 140 111 106 70 78 28 352 320 307 307 302 308 320 325 319 316 328 329 332 343 354 6 359 350 343 340 335 328 325 323 335 327 315 343 344 338 318 299
165 154 153 157 149 134 128 113 116 65 49 342 310 310 300 300 307 321 325 325 324 5 5 19 14 342 349 354 348 349 327 318 335 341 330 325 323 318 330 323 325 325 327
169 161 158 155 160 155 164 155 112 89 42 341 5 337 326 327 93 285 252 290 340 22 20 15 9 3 0 350 339 331 332 331 325 323 314 331 326 318 322 319 316 315 313
174 165 162 164 164 148 146 148 147 117 85 11 75 25 355 337 331 340 331 346 38 24 9 17 7 355 342 333 327 330 323 320 315 310 319 322 312 309 307 318 315 308 300
175 168 168 161 165 152 160 175 170 144 136 81 53 126 356 294 313 316 334 6 358 6 7 345 323 322 323 321 325 324 321 320 318 317 315 312 309 309 316 311 303 300 297
182 177 169 163 164 160 165 176 183 143 125 131 76 79 117 143 343 320 305 343 11 344 323 321 322 311 321 300 315 317 319 320 319 316 312 322 317 310 306 301 300 296 295
182 177 171 167 169 169 168 167 170 151 131 133 136 127 60 33 192 221 310 317 317 337 300 289 305 294 296 314 330 329 328 325 325 323 320 313 311 310 304 302 298 294 292
183 184 175 170 170 166 168 172 176 155 132 121 137 150 161 169 178 182 273 278 284 317 321 304 285 288 318 330 321 334 341 328 322 319 314 309 305 302 297 297 297 295 291
188 192 172 169 172 172 166 151 159 166 147 150 158 172 167 185 176 203 251 283 278 271 278 287 275 293 331 6 360 345 336 325 317 313 310 306 302 299 302 299 295 292 290
190 177 177 163 162 160 157 159 166 180 142 144 158 158 158 194 196 195 258 311 306 240 245 240 302 61 50 13 333 329 327 316 315 313 308 303 301 298 296 293 291 292 289
163 164 170 169 166 163 164 163 168 173 158 149 153 147 144 177 181 116 345 262 284 306 306 259 226 66 9 338 322 316 315 310 311 309 304 303 298 293 292 290 288 287 285
161 164 167 167 167 167 163 165 170 172 154 144 145 133 116 98 44 47 272 249 221 241 279 98 317 316 327 316 310 309 300 303 303 302 302 300 296 294 290 287 282 279 275
169 173 170 164 168 171 171 168 171 176 156 137 131 141 161 156 174 180 235 245 253 249 274 285 330 314 311 306 306 301 298 297 294 298 297 294 294 293 288 284 281 280 279
172 170 168 167 170 170 172 174 171 176 157 155 153 155 170 186 204 205 215 245 255 258 275 294 301 302 306 305 300 302 299 293 290 285 289 293 294 292 289 284 281 280 278
170 168 173 172 171 171 171 174 169 174 166 159 159 171 177 182 213 217 215 237 251 269 281 286 294 304 299 305 307 298 291 286 278 282 284 290 290 290 289 288 287 283 280
170 174 177 170 173 166 167 167 170 168 159 163 167 175 184 201 213 210 212 231 247 249 265 274 285 295 298 300 289 295 292 286 290 286 288 282 284 284 284 283 280 278 279
175 174 166 172 169 167 169 171 176 168 160 162 178 190 194 210 218 209 204 217 233 242 248 267 279 288 293 297 296 300 291 294 287 286 287 282 281 275 273 277 280 280 280
170 172 177 172 168 173 183 186 172 162 167 172 182 196 210 207 229 238 251 258 248 242 256 261 275 285 287 290 292 293 292 294 296 274 277 279 278 274 272 266 268 272 276
166 175 175 171 171 173 187 185 178 166 164 172 186 201 209 214 212 230 248 260 270 277 276 280 280 280 290 293 295 290 281 279 277 277 279 280 274 270 270 265 268 271 274
174 174 176 179 174 180 187 184 178 167 163 172 192 202 211 224 233 239 253 250 256 253 256 265 270 280 279 281 276 283 285 276 275 275 260 270 278 270 271 264 267 270 273
175 178 176 174 173 180 188 185 176 161 162 181 200 205 210 228 236 254 260 261 266 266 273 282 286 289 291 297 296 297 287 291 288 285 278 274 277 273 268 269 266 266 267
172 173 165 172 169 174 188 188 173 161 172 179 192 207 215 229 241 259 265 262 273 288 292 283 284 296 295 290 289 280 283 281 280 283 277 260 272 275 278 263 266 262 265